EA2CW-13 Weather Reports


time (UTC)temp
C
wind
direction
speed
KPH
gust
KPH
rain 1hr
cm
rain 24hr
cm
rain mn
cm
humidity
%
barometer
mb
20260506164349 22 0.0 0.0 0.00 0.00 0.00 73 1051.0
20260506162813 20 0.0 0.0 0.00 0.00 0.00 76 1051.2
20260506161237 18 0.0 0.0 0.00 0.00 0.00 80 1051.5
20260506155701 18 0.0 0.0 0.00 0.00 0.00 82 1051.5
20260506154125 17 0.0 0.0 0.00 0.00 0.00 84 1051.6
20260506152549 16 0.0 0.0 0.00 0.00 0.00 84 1051.7
20260506151013 15 0.0 0.0 0.00 0.00 0.00 81 1051.9
20260506143901 16 0.0 0.0 0.00 0.00 0.00 75 1051.9
20260506142325 16 0.0 0.0 0.00 0.00 0.00 67 1052.0
20260506140749 17 0.0 0.0 0.00 0.00 0.00 62 1051.9
20260506135213 18 0.0 0.0 0.00 0.00 0.00 53 1051.9
20260506133637 21 0.0 0.0 0.00 0.00 0.00 49 1051.9
20260506132101 20 0.0 0.0 0.00 0.00 0.00 49 1051.8
20260506130525 21 0.0 0.0 0.00 0.00 0.00 50 1051.8
20260506124949 20 0.0 0.0 0.00 0.00 0.00 53 1051.7
20260506123413 20 0.0 0.0 0.00 0.00 0.00 52 1051.5
20260506121837 18 0.0 0.0 0.00 0.00 0.00 53 1051.4
20260506120301 20 0.0 0.0 0.00 0.00 0.00 52 1051.3
20260506114725 21 0.0 0.0 0.00 0.00 0.00 47 1051.4
20260506113149 21 0.0 0.0 0.00 0.00 0.00 47 1051.5
20260506111613 20 0.0 0.0 0.00 0.00 0.00 52 1051.6
20260506110037 20 0.0 0.0 0.00 0.00 0.00 51 1051.5
20260506104501 20 0.0 0.0 0.00 0.00 0.00 52 1051.6
20260506102925 19 0.0 0.0 0.00 0.00 0.00 52 1051.4
20260506101349 20 0.0 0.0 0.00 0.00 0.00 49 1051.3
20260506095814 21 0.0 0.0 0.00 0.00 0.00 50 1051.3
20260506094238 19 0.0 0.0 0.00 0.00 0.00 56 1051.4
20260506092702 17 0.0 0.0 0.00 0.00 0.00 56 1051.4
20260506091126 17 0.0 0.0 0.00 0.00 0.00 56 1051.2
20260506085550 18 0.0 0.0 0.00 0.00 0.00 57 1051.2
20260506084014 16 0.0 0.0 0.00 0.00 0.00 58 1051.1
20260506082438 17 0.0 0.0 0.00 0.00 0.00 57 1051.1
20260506080902 17 0.0 0.0 0.00 0.00 0.00 60 1051.2
20260506072214 16 0.0 0.0 0.00 0.00 0.00 81 1051.1
20260506070638 15 0.0 0.0 0.00 0.00 0.00 84 1051.1
20260506061950 13 0.0 0.0 0.00 0.00 0.00 88 1050.9
20260506060414 13 0.0 0.0 0.00 0.00 0.00 89 1050.9
20260506050150 12 0.0 0.0 0.00 0.00 0.00 91 1050.6
20260506044614 12 0.0 0.0 0.00 0.00 0.00 91 1050.6
20260506043038 12 0.0 0.0 0.00 0.00 0.00 92 1050.6
20260506041502 12 0.0 0.0 0.00 0.00 0.00 92 1050.5
20260506035926 12 0.0 0.0 0.00 0.00 0.00 93 1050.7
20260506034350 12 0.0 0.0 0.00 0.00 0.00 93 1050.7
20260506032814 12 0.0 0.0 0.00 0.00 0.00 92 1050.7
20260506031238 12 0.0 0.0 0.00 0.00 0.00 93 1050.7
20260506025703 12 0.0 0.0 0.00 0.00 0.00 94 1050.8
20260506024127 12 0.0 0.0 0.00 0.00 0.00 93 1050.8
20260506022551 12 0.0 0.0 0.00 0.00 0.00 95 1050.8
20260506021015 12 0.0 0.0 0.00 0.00 0.00 96 1050.8
20260506015439 12 0.0 0.0 0.00 0.00 0.00 97 1051.0
20260506012327 13 0.0 0.0 0.00 0.00 0.00 10 1051.0
20260506010751 12 0.0 0.0 0.00 0.00 0.00 10 1051.1
20260506005215 12 0.0 0.0 0.00 0.00 0.00 10 1051.2
20260506003639 12 0.0 0.0 0.00 0.00 0.00 10 1051.4
20260506002103 12 0.0 0.0 0.00 0.00 0.00 10 1051.5
20260506000527 12 0.0 0.0 0.00 0.00 0.00 10 1051.5
20260505234951 12 0.0 0.0 0.00 0.00 0.00 10 1051.6
20260505233415 12 0.0 0.0 0.00 0.00 0.00 10 1051.6
20260505231839 12 0.0 0.0 0.00 0.00 0.00 10 1051.6
20260505230303 12 0.0 0.0 0.00 0.00 0.00 10 1051.6
20260505224727 11 0.0 0.0 0.00 0.00 0.00 10 1051.7
20260505223151 12 0.0 0.0 0.00 0.00 0.00 10 1051.6
20260505221615 12 0.0 0.0 0.00 0.00 0.00 10 1051.9
20260505220039 12 0.0 0.0 0.00 0.00 0.00 10 1051.8
20260505214503 12 0.0 0.0 0.00 0.00 0.00 10 1051.9
20260505212927 12 0.0 0.0 0.00 0.00 0.00 10 1052.1
20260505211351 12 0.0 0.0 0.00 0.00 0.00 10 1052.1
20260505205815 12 0.0 0.0 0.00 0.00 0.00 10 1052.0
20260505204239 12 0.0 0.0 0.00 0.00 0.00 98 1051.9
20260505202703 12 0.0 0.0 0.00 0.00 0.00 96 1051.9
20260505201127 13 0.0 0.0 0.00 0.00 0.00 93 1051.9
20260505195552 13 0.0 0.0 0.00 0.00 0.00 91 1051.6
20260505194016 13 0.0 0.0 0.00 0.00 0.00 89 1051.5
20260505192440 13 0.0 0.0 0.00 0.00 0.00 86 1051.4
20260505190904 13 0.0 0.0 0.00 0.00 0.00 82 1051.3
20260505185328 12 0.0 0.0 0.00 0.00 0.00 77 1051.4
20260505183752 14 0.0 0.0 0.00 0.00 0.00 68 1051.3
20260505182216 15 0.0 0.0 0.00 0.00 0.00 64 1051.1
20260505180640 16 0.0 0.0 0.00 0.00 0.00 62 1051.1
20260505175104 17 0.0 0.0 0.00 0.00 0.00 60 1051.2
20260505173528 17 0.0 0.0 0.00 0.00 0.00 61 1051.1
20260505171952 16 0.0 0.0 0.00 0.00 0.00 57 1051.1
20260505170416 17 0.0 0.0 0.00 0.00 0.00 57 1051.0
20260505164840 16 0.0 0.0 0.00 0.00 0.00 55 1051.2